Regional & State Weather Roundups


409 
ASUS45 KBOI 180810
RWRID 
IDAHO REGIONAL WEATHER ROUNDUP
NATIONAL WEATHER SERVICE BOISE ID
100 AM MST MON DEC 18 2017
NOTE: "FAIR" INDICATES FEW OR NO CLOUDS BELOW 12000 FEET
WITH NO SIGNIFICANT WEATHER AND/OR OBSTRUCTIONS TO VISIBILITY
IDZ012-014-180900-
SOUTHWEST IDAHO
  
CITY           SKY/WX    TMP DP  RH WIND       PRES   REMARKS
BOISE          CLOUDY    36  26  67 E6        30.22F WCI  31          
CALDWELL       CLOUDY    35  25  66 SE6       30.24F WCI  30          
MOUNTAIN HOME  CLOUDY    33  27  79 E12       30.22F WCI  24          
$$
IDZ016-017-180900-
SOUTHCENTRAL IDAHO
  
CITY           SKY/WX    TMP DP  RH WIND       PRES   REMARKS
BURLEY         CLOUDY    30  23  75 CALM      30.22F                  
JEROME         CLOUDY    30  23  75 CALM      30.23F                  
TWIN FALLS     CLOUDY    28  22  78 CALM      30.22F                  
$$
IDZ019>023-180900-
SOUTHEAST IDAHO
  
CITY           SKY/WX    TMP DP  RH WIND       PRES   REMARKS
IDAHO FALLS    CLOUDY    22  20  92 S5        30.22F WCI  16          
POCATELLO      CLOUDY    28  21  75 SW12      30.23S WCI  18          
REXBURG        CLOUDY    21  19  92 CALM      30.20F                  
$$
IDZ006-010-011-018-031-032-180900-
CENTRAL IDAHO MOUNTAINS
  
CITY           SKY/WX    TMP DP  RH WIND       PRES   REMARKS
MCCALL         CLOUDY    27  24  89 SE8       30.13F WCI  19          
HAILEY         MOCLDY    21  19  93 NW7       30.21S WCI  13          
STANLEY          N/A     22  16  78 CALM      30.12S                  
SALMON         CLOUDY    23  16  74 CALM      30.12F                  
CHALLIS        CLOUDY    24  16  71 CALM      30.10F                  
$$
IDZ002-004-006-007-026-180900-
NORTHERN IDAHO
  
CITY           SKY/WX    TMP DP  RH WIND       PRES   REMARKS
LEWISTON       CLOUDY    43  32  65 S22G29    29.96S                  
LOWELL           N/A     31  30  96 CALM      30.09F                  
COEUR D'ALENE  CLOUDY    37  33  85 S8        29.88F WCI  31          
MULLAN PASS    SNOW      29  25  85 W9        29.81S VSB 1/2 WCI  20  
$$